GW7179 Weather Reports


time (UTC)temp
C
wind
direction
speed
KPH
gust
KPH
rain 1hr
cm
rain 24hr
cm
rain mn
cm
humidity
%
barometer
mb
20260906223931 36 33 6.4 8.0 0.00 0.00 0.00 37 988.5
20260906223431 36 96 4.8 8.0 0.00 0.00 0.00 37 988.5
20260906222931 36 173 6.4 12.9 0.00 0.00 0.00 37 988.8
20260906222433 37 213 4.8 11.3 0.00 0.00 0.00 36 988.8
20260906221933 36 155 3.2 9.7 0.00 0.00 0.00 37 988.5
20260906221431 36 51 0.0 9.7 0.00 0.00 0.00 37 988.5
20260906220931 37 180 9.7 16.1 0.00 0.00 0.00 36 988.8
20260906220431 37 175 11.3 12.9 0.00 0.00 0.00 36 988.5
20260906215931 37 179 4.8 11.3 0.00 0.00 0.00 37 988.5
20260906215431 36 242 4.8 12.9 0.00 0.00 0.00 38 988.5
20260906214931 36 214 11.3 16.1 0.00 0.00 0.00 37 988.8
20260906214432 37 175 6.4 17.7 0.00 0.00 0.00 36 988.8
20260906213931 37 179 8.0 11.3 0.00 0.00 0.00 37 988.8
20260906213431 37 178 8.0 16.1 0.00 0.00 0.00 37 988.8
20260906212933 37 157 6.4 9.7 0.00 0.00 0.00 37 988.8
20260906212431 37 74 8.0 11.3 0.00 0.00 0.00 37 989.2
20260906211931 36 58 8.0 14.5 0.00 0.00 0.00 38 989.2
20260906211431 36 176 3.2 8.0 0.00 0.00 0.00 39 989.2
20260906210931 37 174 8.0 14.5 0.00 0.00 0.00 39 989.2
20260906210431 37 182 6.4 9.7 0.00 0.00 0.00 37 989.2
20260906205931 36 69 4.8 9.7 0.00 0.00 0.00 39 989.5
20260906205431 36 208 6.4 12.9 0.00 0.00 0.00 39 989.5
20260906204931 37 356 6.4 9.7 0.00 0.00 0.00 39 989.5
20260906204431 36 215 6.4 9.7 0.00 0.00 0.00 39 989.8
20260906203932 36 183 3.2 11.3 0.00 0.00 0.00 39 989.8
20260906203431 37 184 4.8 11.3 0.00 0.00 0.00 38 989.8
20260906202931 36 178 4.8 11.3 0.00 0.00 0.00 40 989.8
20260906202431 36 231 8.0 11.3 0.00 0.00 0.00 39 989.8
20260906201931 36 147 14.5 14.5 0.00 0.00 0.00 39 989.8
20260906201432 36 217 4.8 14.5 0.00 0.00 0.00 39 989.8
20260906200932 36 279 4.8 11.3 0.00 0.00 0.00 40 989.8
20260906200431 36 213 6.4 8.0 0.00 0.00 0.00 41 989.8
20260906195932 36 185 9.7 17.7 0.00 0.00 0.00 41 989.8
20260906195431 36 176 4.8 9.7 0.00 0.00 0.00 38 989.8
20260906194932 36 178 8.0 12.9 0.00 0.00 0.00 39 990.2
20260906194431 36 202 4.8 11.3 0.00 0.00 0.00 42 989.8
20260906193931 36 162 11.3 16.1 0.00 0.00 0.00 41 990.2
20260906193431 36 224 11.3 12.9 0.00 0.00 0.00 42 990.2
20260906192931 36 188 3.2 14.5 0.00 0.00 0.00 41 990.5
20260906192431 36 173 12.9 20.9 0.00 0.00 0.00 41 990.5
20260906191931 36 135 4.8 9.7 0.00 0.00 0.00 42 990.5
20260906191431 35 248 8.0 16.1 0.00 0.00 0.00 43 990.5
20260906190931 36 168 8.0 9.7 0.00 0.00 0.00 42 990.5
20260906190431 36 188 11.3 12.9 0.00 0.00 0.00 43 990.5
20260906185932 35 201 8.0 9.7 0.00 0.00 0.00 45 990.5
20260906185431 35 191 3.2 12.9 0.00 0.00 0.00 43 990.9
20260906184932 35 269 0.0 11.3 0.00 0.00 0.00 42 990.5
20260906184431 36 167 6.4 11.3 0.00 0.00 0.00 43 990.5
20260906183932 35 42 6.4 11.3 0.00 0.00 0.00 44 990.9
20260906183431 35 193 8.0 14.5 0.00 0.00 0.00 44 991.2
20260906182931 35 45 3.2 9.7 0.00 0.00 0.00 44 991.2
20260906182432 35 166 4.8 14.5 0.00 0.00 0.00 44 991.2
20260906181931 35 250 3.2 11.3 0.00 0.00 0.00 46 991.2
20260906181431 35 165 6.4 14.5 0.00 0.00 0.00 46 991.2
20260906180932 35 169 8.0 11.3 0.00 0.00 0.00 45 991.5
20260906180431 35 235 6.4 11.3 0.00 0.00 0.00 47 991.2
20260906175932 34 224 4.8 11.3 0.00 0.00 0.00 47 991.5
20260906175432 35 219 6.4 14.5 0.00 0.00 0.00 48 991.5
20260906174932 34 202 4.8 8.0 0.00 0.00 0.00 50 991.5
20260906174431 35 208 6.4 14.5 0.00 0.00 0.00 48 991.9
20260906173931 34 172 6.4 12.9 0.00 0.00 0.00 48 991.5
20260906173431 34 179 4.8 8.0 0.00 0.00 0.00 47 991.9
20260906172931 34 83 6.4 9.7 0.00 0.00 0.00 48 991.9
20260906172431 34 214 4.8 11.3 0.00 0.00 0.00 50 991.9
20260906171932 34 220 8.0 11.3 0.00 0.00 0.00 49 991.9
20260906171431 33 198 6.4 8.0 0.00 0.00 0.00 51 992.2
20260906170931 33 217 4.8 9.7 0.00 0.00 0.00 50 991.9
20260906170431 33 200 3.2 12.9 0.00 0.00 0.00 50 992.2
20260906165931 34 162 8.0 8.0 0.00 0.00 0.00 51 992.6
20260906165431 33 180 4.8 12.9 0.00 0.00 0.00 52 992.2
20260906164931 33 100 3.2 11.3 0.00 0.00 0.00 51 992.2
20260906164431 33 218 8.0 11.3 0.00 0.00 0.00 54 992.6
20260906163932 33 226 3.2 12.9 0.00 0.00 0.00 53 992.6
20260906163431 33 223 6.4 12.9 0.00 0.00 0.00 53 992.6
20260906162931 33 223 11.3 11.3 0.00 0.00 0.00 52 992.6
20260906162431 33 146 8.0 9.7 0.00 0.00 0.00 53 992.6
20260906161931 32 79 3.2 6.4 0.00 0.00 0.00 55 992.6
20260906161431 32 231 4.8 6.4 0.00 0.00 0.00 56 992.2
20260906160931 32 109 3.2 8.0 0.00 0.00 0.00 56 992.2
20260906160433 32 232 1.6 6.4 0.00 0.00 0.00 57 992.6
20260906155931 32 172 4.8 9.7 0.00 0.00 0.00 59 992.2
20260906155431 32 174 8.0 9.7 0.00 0.00 0.00 60 992.2
20260906154931 32 174 6.4 9.7 0.00 0.00 0.00 59 992.2
20260906154432 32 178 3.2 9.7 0.00 0.00 0.00 62 992.2
20260906153931 31 251 6.4 8.0 0.00 0.00 0.00 64 992.2
20260906153434 31 205 3.2 8.0 0.00 0.00 0.00 63 992.2
20260906152931 31 201 3.2 8.0 0.00 0.00 0.00 65 992.2
20260906152431 31 252 4.8 8.0 0.00 0.00 0.00 63 991.9
20260906151931 31 170 4.8 8.0 0.00 0.00 0.00 63 992.2
20260906151432 31 160 4.8 8.0 0.00 0.00 0.00 62 992.2
20260906150932 31 4 4.8 6.4 0.00 0.00 0.00 63 991.9
20260906150431 31 183 3.2 6.4 0.00 0.00 0.00 63 991.9
20260906145931 30 256 0.0 4.8 0.00 0.00 0.00 66 991.9
20260906145433 30 177 3.2 6.4 0.00 0.00 0.00 68 991.9
20260906144931 30 217 8.0 8.0 0.00 0.00 0.00 68 991.9
20260906144431 31 207 4.8 6.4 0.00 0.00 0.00 65 991.9
20260906143728 30 204 3.2 4.8 0.00 0.00 0.00 64 991.9
20260906142931 30 204 1.6 6.4 0.00 0.00 0.00 65 991.9
20260906142431 30 97 0.0 4.8 0.00 0.00 0.00 65 991.9
20260906141932 30 278 0.0 4.8 0.00 0.00 0.00 66 991.9
20260906141432 30 67 3.2 4.8 0.00 0.00 0.00 66 991.9
20260906140931 30 4 1.6 4.8 0.00 0.00 0.00 66 991.9
20260906140432 30 205 3.2 3.2 0.00 0.00 0.00 67 991.9
20260906135933 30 233 3.2 4.8 0.00 0.00 0.00 68 991.9
20260906135431 29 75 0.0 4.8 0.00 0.00 0.00 68 991.9
20260906134932 29 348 4.8 4.8 0.00 0.00 0.00 69 991.9
20260906134431 29 360 3.2 6.4 0.00 0.00 0.00 70 991.9
20260906133931 28 3 0.0 8.0 0.00 0.00 0.00 71 991.9
20260906133433 28 311 4.8 6.4 0.00 0.00 0.00 71 991.9
20260906132932 28 19 4.8 6.4 0.00 0.00 0.00 73 991.9
20260906132432 28 6 8.0 11.3 0.00 0.00 0.00 73 991.9
20260906131932 28 118 4.8 4.8 0.00 0.00 0.00 74 991.9
20260906131431 28 64 3.2 4.8 0.00 0.00 0.00 74 991.9
20260906130932 28 104 0.0 4.8 0.00 0.00 0.00 74 991.9
20260906130431 27 89 0.0 4.8 0.00 0.00 0.00 75 991.9
20260906125932 27 1 3.2 6.4 0.00 0.00 0.00 77 991.9
20260906125431 26 347 3.2 4.8 0.00 0.00 0.00 79 991.9
20260906124931 26 44 0.0 4.8 0.00 0.00 0.00 81 991.9
20260906124432 25 342 4.8 4.8 0.00 0.00 0.00 84 991.5
20260906123931 25 336 4.8 6.4 0.00 0.00 0.00 85 991.5
20260906123431 25 347 3.2 4.8 0.00 0.00 0.00 85 991.5
20260906122934 25 346 3.2 6.4 0.00 0.00 0.00 85 991.9
20260906122433 25 329 4.8 4.8 0.00 0.00 0.00 85 991.5
20260906121932 25 351 4.8 8.0 0.00 0.00 0.00 86 991.5
20260906121431 25 31 4.8 6.4 0.00 0.00 0.00 86 991.2
20260906120932 25 251 3.2 4.8 0.00 0.00 0.00 85 991.2
20260906120431 25 87 0.0 4.8 0.00 0.00 0.00 85 991.2
20260906115931 25 290 0.0 4.8 0.00 0.00 0.00 86 990.9
20260906115431 25 205 0.0 4.8 0.00 0.00 0.00 85 991.2
20260906114931 25 302 1.6 4.8 0.00 0.00 0.00 84 991.2
20260906114431 25 328 1.6 3.2 0.00 0.00 0.00 84 991.2
20260906113932 25 77 0.0 4.8 0.00 0.00 0.00 85 990.9
20260906113431 25 309 4.8 8.0 0.00 0.00 0.00 85 991.2
20260906112931 25 360 6.4 9.7 0.00 0.00 0.00 84 990.9
20260906112431 25 10 3.2 4.8 0.00 0.00 0.00 84 990.9
20260906111931 25 347 3.2 8.0 0.00 0.00 0.00 84 990.5
20260906111431 25 9 3.2 6.4 0.00 0.00 0.00 83 990.9
20260906110932 25 211 3.2 6.4 0.00 0.00 0.00 83 991.2
20260906110431 25 359 4.8 6.4 0.00 0.00 0.00 83 990.9
20260906105933 25 339 3.2 6.4 0.00 0.00 0.00 82 990.9
20260906105431 25 62 0.0 4.8 0.00 0.00 0.00 82 990.5
20260906104932 25 278 3.2 4.8 0.00 0.00 0.00 81 990.5
20260906104432 25 76 0.0 4.8 0.00 0.00 0.00 81 990.9
20260906103931 26 242 0.0 1.6 0.00 0.00 0.00 80 990.9
20260906103431 26 245 3.2 6.4 0.00 0.00 0.00 81 990.5
20260906102931 25 14 3.2 8.0 0.00 0.00 0.00 81 990.5
20260906102431 26 339 0.0 1.6 0.00 0.00 0.00 81 990.9
20260906101932 26 315 0.0 3.2 0.00 0.00 0.00 81 990.5
20260906101431 26 308 1.6 3.2 0.00 0.00 0.00 80 990.9
20260906100932 26 316 1.6 3.2 0.00 0.00 0.00 80 990.5
20260906100432 26 322 1.6 3.2 0.00 0.00 0.00 79 990.5
20260906095932 26 296 1.6 3.2 0.00 0.00 0.00 78 990.5
20260906095431 26 309 1.6 3.2 0.00 0.00 0.00 77 990.5
20260906094931 26 310 3.2 3.2 0.00 0.00 0.00 76 990.5
20260906094431 26 308 3.2 3.2 0.00 0.00 0.00 75 990.2
20260906093931 27 321 3.2 3.2 0.00 0.00 0.00 75 990.2
20260906093431 27 324 1.6 3.2 0.00 0.00 0.00 74 989.8
20260906092932 27 298 3.2 3.2 0.00 0.00 0.00 73 990.5
20260906092431 27 238 0.0 3.2 0.00 0.00 0.00 73 989.8
20260906091931 27 201 0.0 4.8 0.00 0.00 0.00 73 990.2
20260906091431 27 249 1.6 4.8 0.00 0.00 0.00 73 990.2
20260906090932 27 175 4.8 4.8 0.00 0.00 0.00 72 990.2
20260906090431 27 187 1.6 6.4 0.00 0.00 0.00 72 989.8
20260906085931 27 221 4.8 8.0 0.00 0.00 0.00 72 989.8
20260906085431 27 231 0.0 8.0 0.00 0.00 0.00 72 989.8
20260906084931 28 258 1.6 8.0 0.00 0.00 0.00 72 989.8
20260906084431 28 228 0.0 6.4 0.00 0.00 0.00 72 990.2
20260906083932 28 215 4.8 9.7 0.00 0.00 0.00 71 990.2
20260906083431 28 168 4.8 9.7 0.00 0.00 0.00 71 990.2
20260906082931 28 194 3.2 8.0 0.00 0.00 0.00 71 990.2
20260906082431 28 26 0.0 8.0 0.00 0.00 0.00 71 990.2
20260906081931 28 217 4.8 8.0 0.00 0.00 0.00 71 989.8
20260906081431 28 231 4.8 8.0 0.00 0.00 0.00 71 989.8
20260906080931 28 232 3.2 4.8 0.00 0.00 0.00 70 989.8
20260906080432 28 205 0.0 9.7 0.00 0.00 0.00 70 989.8
20260906075932 28 244 3.2 6.4 0.00 0.00 0.00 71 989.8
20260906075432 28 222 3.2 6.4 0.00 0.00 0.00 71 989.8
20260906074931 28 225 4.8 4.8 0.00 0.00 0.00 71 990.2
20260906074432 28 224 4.8 4.8 0.00 0.00 0.00 71 989.8
20260906073931 28 284 1.6 6.4 0.00 0.00 0.00 71 990.2
20260906073431 28 278 0.0 3.2 0.00 0.00 0.00 72 990.2
20260906072933 28 269 1.6 3.2 0.00 0.00 0.00 72 990.5
20260906072431 28 287 3.2 3.2 0.00 0.00 0.00 71 990.5
20260906071931 28 305 3.2 3.2 0.00 0.00 0.00 70 990.5
20260906071432 28 271 1.6 3.2 0.00 0.00 0.00 70 990.2
20260906070932 28 217 0.0 4.8 0.00 0.00 0.00 70 990.5
20260906070431 28 251 0.0 3.2 0.00 0.00 0.00 70 990.5
20260906065931 28 235 1.6 3.2 0.00 0.00 0.00 70 990.5
20260906065432 28 247 1.6 3.2 0.00 0.00 0.00 69 990.2
20260906064931 28 296 1.6 3.2 0.00 0.00 0.00 69 990.5
20260906064431 28 294 3.2 3.2 0.00 0.00 0.00 68 990.2
20260906063931 28 201 1.6 3.2 0.00 0.00 0.00 68 990.2
20260906063431 29 249 0.0 4.8 0.00 0.00 0.00 67 990.5
20260906062931 29 246 3.2 3.2 0.00 0.00 0.00 67 990.2
20260906062431 29 250 3.2 4.8 0.00 0.00 0.00 66 990.5
20260906061931 29 222 3.2 4.8 0.00 0.00 0.00 66 990.2
20260906061431 29 200 3.2 4.8 0.00 0.00 0.00 66 990.2
20260906060933 29 184 1.6 3.2 0.00 0.00 0.00 66 990.5
20260906060432 29 237 0.0 4.8 0.00 0.00 0.00 66 990.5
20260906055931 29 216 1.6 3.2 0.00 0.00 0.00 66 990.5
20260906055432 29 285 1.6 3.2 0.00 0.00 0.00 65 990.2
20260906054931 29 272 3.2 3.2 0.00 0.00 0.00 65 990.5
20260906054431 30 256 1.6 3.2 0.00 0.00 0.00 64 990.5
20260906053931 30 211 1.6 3.2 0.00 0.00 0.00 64 990.5
20260906053431 30 213 1.6 3.2 0.00 0.00 0.00 63 990.5
20260906052931 30 182 1.6 3.2 0.00 0.00 0.00 63 990.5
20260906052431 30 241 3.2 6.4 0.00 0.00 0.00 63 990.2
20260906051931 30 200 3.2 6.4 0.00 0.00 0.00 63 990.5
20260906051431 30 201 0.0 4.8 0.00 0.00 0.00 62 990.5
20260906050932 30 266 1.6 6.4 0.00 0.00 0.00 62 990.5
20260906050431 30 175 6.4 6.4 0.00 0.00 0.00 62 990.5
20260906045933 30 181 3.2 8.0 0.00 0.00 0.08 61 990.5
20260906045431 30 149 4.8 11.3 0.00 0.00 0.08 61 990.5
20260906044931 30 240 3.2 8.0 0.00 0.00 0.08 61 990.5
20260906044431 30 170 4.8 8.0 0.00 0.00 0.08 61 990.2
20260906043932 30 180 8.0 8.0 0.00 0.00 0.08 60 990.5
20260906043431 30 171 6.4 9.7 0.00 0.00 0.08 60 990.5
20260906042931 30 224 3.2 6.4 0.00 0.00 0.08 59 990.5
20260906042432 30 193 1.6 4.8 0.00 0.00 0.08 59 990.2
20260906041931 30 194 3.2 6.4 0.00 0.00 0.08 59 990.2
20260906041432 30 230 4.8 8.0 0.00 0.00 0.08 59 990.2
20260906040934 30 176 4.8 4.8 0.00 0.00 0.08 59 990.2
20260906040431 30 179 4.8 6.4 0.00 0.00 0.08 59 990.5
20260906035931 30 215 8.0 8.0 0.00 0.00 0.08 59 990.2
20260906035431 31 248 0.0 4.8 0.00 0.00 0.08 59 990.5
20260906034931 31 218 1.6 4.8 0.00 0.00 0.08 58 990.5
20260906034431 31 229 3.2 6.4 0.00 0.00 0.08 58 990.2
20260906033932 31 205 3.2 6.4 0.00 0.00 0.08 57 990.2
20260906033431 31 251 3.2 4.8 0.00 0.00 0.08 57 990.2
20260906032932 31 194 3.2 8.0 0.00 0.00 0.08 57 990.2
20260906032431 31 201 3.2 8.0 0.00 0.00 0.08 57 990.2
20260906031931 31 190 4.8 8.0 0.00 0.00 0.08 56 990.5
20260906031431 31 173 6.4 6.4 0.00 0.00 0.08 56 990.5
20260906030934 31 180 3.2 4.8 0.00 0.00 0.08 56 990.5
20260906030432 31 197 6.4 8.0 0.00 0.00 0.08 57 990.5
20260906025932 31 205 3.2 6.4 0.00 0.00 0.08 58 990.5
20260906025434 31 180 8.0 9.7 0.00 0.00 0.08 57 990.2
20260906024933 31 167 3.2 8.0 0.00 0.00 0.08 57 990.2
20260906024431 31 172 4.8 8.0 0.00 0.00 0.08 57 990.2
20260906023931 31 148 8.0 8.0 0.00 0.00 0.08 56 990.2
20260906023431 31 154 4.8 9.7 0.00 0.00 0.08 56 989.8
20260906022931 31 180 6.4 8.0 0.00 0.00 0.08 56 989.8
20260906022431 31 170 6.4 9.7 0.00 0.00 0.08 55 989.8
20260906021931 31 162 4.8 11.3 0.00 0.00 0.08 56 989.8
20260906021431 31 167 6.4 11.3 0.00 0.00 0.08 56 989.5
20260906020935 32 162 11.3 14.5 0.00 0.00 0.08 55 989.8
20260906020431 32 186 8.0 12.9 0.00 0.00 0.08 55 989.5
20260906015932 32 160 6.4 11.3 0.00 0.00 0.08 55 989.5
20260906015431 32 224 1.6 11.3 0.00 0.00 0.08 55 989.5
20260906014931 32 145 4.8 11.3 0.00 0.00 0.08 54 989.5
20260906014431 32 167 4.8 8.0 0.00 0.00 0.08 53 989.2
20260906013931 32 148 3.2 8.0 0.00 0.00 0.08 52 989.2
20260906013432 33 81 8.0 11.3 0.00 0.00 0.08 50 989.2
20260906012933 33 161 11.3 16.1 0.00 0.00 0.08 49 989.2
20260906012431 33 163 11.3 14.5 0.00 0.00 0.08 48 988.8
20260906011931 33 280 4.8 4.8 0.00 0.00 0.08 43 988.5
20260906011431 34 45 0.0 4.8 0.00 0.00 0.08 43 988.5
20260906010931 34 10 1.6 4.8 0.00 0.00 0.08 42 988.5
20260906010431 34 179 3.2 4.8 0.00 0.00 0.08 42 988.5
20260906005931 34 344 1.6 3.2 0.00 0.00 0.08 41 988.5
20260906005431 35 318 0.0 3.2 0.00 0.00 0.08 40 988.1
20260906004931 35 41 1.6 3.2 0.00 0.00 0.08 40 988.5
20260906004431 35 322 3.2 4.8 0.00 0.00 0.08 39 988.1
20260906003931 35 150 3.2 8.0 0.00 0.00 0.08 39 988.5
20260906003431 35 75 3.2 4.8 0.00 0.00 0.08 39 988.1
20260906002931 35 16 0.0 9.7 0.00 0.00 0.08 39 988.5
20260906002431 35 29 3.2 4.8 0.00 0.00 0.08 38 988.1
20260906001932 36 322 1.6 4.8 0.00 0.00 0.08 39 988.5
20260906001439 36 335 1.6 6.4 0.00 0.00 0.08 39 988.5
20260906000931 36 218 4.8 6.4 0.00 0.00 0.08 38 988.5
20260906000433 36 195 6.4 8.0 0.00 0.00 0.08 39 988.1
20260905235931 36 225 3.2 4.8 0.00 0.00 0.08 37 988.1
20260905235432 36 236 4.8 8.0 0.00 0.00 0.08 36 988.1
20260905234931 36 269 3.2 6.4 0.00 0.00 0.08 37 988.1
20260905234432 36 188 4.8 8.0 0.00 0.00 0.08 36 988.1
20260905233931 36 192 6.4 6.4 0.00 0.00 0.08 36 988.1
20260905233431 36 174 1.6 6.4 0.00 0.00 0.08 35 988.1
20260905232931 37 209 3.2 8.0 0.00 0.00 0.08 35 988.1
20260905232432 37 279 3.2 6.4 0.00 0.00 0.08 36 988.1
20260905231932 36 247 3.2 6.4 0.00 0.00 0.08 37 988.1
20260905231432 36 253 3.2 8.0 0.00 0.00 0.08 37 988.1
20260905230932 36 182 1.6 4.8 0.00 0.00 0.08 36 988.1
20260905230431 36 259 4.8 12.9 0.00 0.00 0.08 36 988.1
20260905225933 36 267 4.8 8.0 0.00 0.00 0.08 36 988.1
20260905225432 36 205 4.8 8.0 0.00 0.00 0.08 37 988.1
20260905224932 37 213 3.2 8.0 0.00 0.00 0.08 36 988.1
20260905224431 37 202 4.8 8.0 0.00 0.00 0.08 36 988.1